Moriarty, NM

8:55 PM MDT on October 18, 2017 (GMT -0600)
Moriarty

Weather History for K0E0 - October, 2012

Change the Weather History Date:

Sunday, October 28, 2012

  Actual Average (KABQ) Record (KABQ)
Temperature  
Mean Temperature 46 °F -  
Max Temperature 69 °F 64 °F 79 °F (1950)
Min Temperature 24 °F 38 °F 22 °F (1915)
Degree Days  
Heating Degree Days 18    
Moisture  
Dew Point 12 °F    
Average Humidity 26    
Maximum Humidity 45    
Minimum Humidity 14    
Precipitation  
Precipitation 0.00 in - - ()
Sea Level Pressure  
Sea Level Pressure 30.20 in    
Wind  
Wind Speed 5 mph (NW)    
Max Wind Speed 14 mph    
Max Gust Speed 17 mph    
Visibility 10 miles    
Events      
Averages and records for this station are not official NWS values.
T = Trace of Precipitation, MM = Missing Value Source: NWS Daily Summary

Daily Weather History Graph

Daily Weather History Graph

Search for Another Location

Airport or City:

Trip Planner

Search our weather history database for the weather conditions in past years. The results will help you decide how hot, cold, wet, or windy it might be!

Date:

Astronomy

Oct. 28, 2012 Rise Set
Actual Time 7:21 AM MDT 6:13 PM MDT
Civil Twilight 6:55 AM MDT 6:39 PM MDT
Nautical Twilight 6:26 AM MDT 7:08 PM MDT
Astronomical Twilight 5:56 AM MDT 7:38 PM MDT
Moon 5:32 PM MDT (10/28) 6:18 AM MDT (10/28)
Length of Visible Light 11h 43m
Length of Day
10h 51m
Waxing Gibbous, 99% of the Moon is Illuminated
Oct 28
Waxing Gibbous
Oct 29
Full
Nov 6
Last Quarter
Nov 13
New
Nov 20
First Quarter

Hourly Weather History & Observations

Time (MDT) Temp. Windchill Dew Point Humidity Pressure Visibility Wind Dir Wind Speed Gust Speed Precip Events Conditions
12:15 AM 41.5 °F - 9.5 °F 27% 30.20 in 10.0 mi Calm Calm - N/A   Clear
12:35 AM 43.9 °F 41.3 °F 9.1 °F 24% 30.20 in 10.0 mi WSW 4.6 mph - N/A   Clear
12:55 AM 40.6 °F 37.5 °F 8.2 °F 26% 30.20 in 10.0 mi WNW 4.6 mph - N/A   Clear
1:15 AM 39.6 °F 35.4 °F 8.1 °F 27% 30.20 in 10.0 mi WNW 5.8 mph - N/A   Clear
1:35 AM 36.7 °F - 7.3 °F 30% 30.20 in 10.0 mi Calm Calm - N/A   Clear
1:55 AM 38.7 °F - 7.7 °F 28% 30.20 in 10.0 mi Calm Calm - N/A   Clear
2:15 AM 37.9 °F - 7.7 °F 29% 30.20 in 10.0 mi Calm Calm - N/A   Clear
2:35 AM 33.8 °F 30.8 °F 5.9 °F 31% 30.20 in 10.0 mi North 3.5 mph - N/A   Clear
2:55 AM 32.9 °F 27.5 °F 5.7 °F 32% 30.20 in 10.0 mi North 5.8 mph - N/A   Clear
3:15 AM 34.2 °F 31.2 °F 6.4 °F 31% 30.20 in 10.0 mi East 3.5 mph - N/A   Clear
3:35 AM 35.8 °F 33.0 °F 7.2 °F 30% 30.20 in 10.0 mi SE 3.5 mph - N/A   Clear
3:55 AM 32.7 °F - 5.2 °F 31% 30.19 in 10.0 mi Calm Calm - N/A   Clear
4:15 AM 27.9 °F - 4.6 °F 37% 30.19 in 10.0 mi Calm Calm - N/A   Clear
4:35 AM 27.0 °F 23.0 °F 5.4 °F 40% 30.20 in 10.0 mi East 3.5 mph - N/A   Clear
4:55 AM 29.1 °F 25.4 °F 6.6 °F 39% 30.20 in 10.0 mi East 3.5 mph - N/A   Clear
5:15 AM 30.6 °F - 6.4 °F 36% 30.21 in 10.0 mi Calm Calm - N/A   Clear
5:35 AM 29.8 °F - 6.1 °F 37% 30.21 in 10.0 mi Calm Calm - N/A   Clear
5:55 AM 27.3 °F - 7.0 °F 42% 30.22 in 10.0 mi Calm Calm - N/A   Clear
6:15 AM 30.6 °F - 6.6 °F 36% 30.21 in 10.0 mi Calm Calm - N/A   Clear
6:35 AM 26.4 °F 22.4 °F 6.4 °F 43% 30.21 in 10.0 mi NNW 3.5 mph - N/A   Clear
6:55 AM 24.8 °F - 5.0 °F 43% 30.21 in 10.0 mi Calm Calm - N/A   Clear
7:15 AM 24.8 °F 17.9 °F 5.2 °F 43% 30.22 in 10.0 mi NNE 5.8 mph - N/A   Clear
7:35 AM 24.8 °F 20.5 °F 6.1 °F 45% 30.23 in 10.0 mi NE 3.5 mph - N/A   Clear
7:55 AM 25.3 °F 19.7 °F 6.4 °F 45% 30.23 in 10.0 mi ENE 4.6 mph - N/A   Clear
8:35 AM 32.2 °F - 8.4 °F 37% 30.24 in 10.0 mi Calm Calm - N/A   Clear
8:55 AM 34.2 °F 30.0 °F 9.3 °F 36% 30.25 in 10.0 mi ENE 4.6 mph - N/A   Clear
9:15 AM 42.8 °F 41.1 °F 9.3 °F 25% 30.25 in 10.0 mi ENE 3.5 mph - N/A   Clear
9:35 AM 45.3 °F 43.0 °F 9.3 °F 23% 30.25 in 10.0 mi NE 4.6 mph - N/A   Clear
9:55 AM 48.6 °F - 10.0 °F 21% 30.25 in 10.0 mi North 3.5 mph - N/A   Clear
10:15 AM 51.8 °F - 10.6 °F 19% 30.25 in 10.0 mi North 3.5 mph - N/A   Clear
10:35 AM 53.8 °F - 10.8 °F 18% 30.25 in 10.0 mi North 5.8 mph - N/A   Clear
10:55 AM 54.7 °F - 10.4 °F 17% 30.25 in 10.0 mi NNE 3.5 mph - N/A   Clear
11:35 AM 56.5 °F - 12.7 °F 18% 30.25 in 10.0 mi NNW 5.8 mph - N/A   Clear
11:55 AM 57.9 °F - 13.3 °F 17% 30.24 in 10.0 mi North 9.2 mph - N/A   Clear
12:15 PM 60.4 °F - 13.5 °F 16% 30.23 in 10.0 mi NNE 10.4 mph - N/A   Clear
12:35 PM 59.5 °F - 13.1 °F 16% 30.23 in 10.0 mi North 3.5 mph - N/A   Clear
12:55 PM 64.0 °F - 15.3 °F 15% 30.22 in 10.0 mi West 6.9 mph - N/A   Clear
1:15 PM 65.7 °F - 16.5 °F 15% 30.21 in 10.0 mi WNW 11.5 mph - N/A   Clear
1:35 PM 65.7 °F - 16.5 °F 15% 30.19 in 10.0 mi WNW 10.4 mph 16.1 mph N/A   Clear
1:55 PM 67.1 °F - 17.1 °F 15% 30.19 in 10.0 mi West 4.6 mph - N/A   Clear
2:15 PM 68.0 °F - 16.9 °F 14% 30.17 in 10.0 mi WNW 10.4 mph - N/A   Clear
2:35 PM 68.4 °F - 16.9 °F 14% 30.16 in 10.0 mi WNW 9.2 mph - N/A   Clear
2:55 PM 68.4 °F - 17.6 °F 14% 30.16 in 10.0 mi WNW 9.2 mph 16.1 mph N/A   Clear
3:15 PM 68.7 °F - 17.4 °F 14% 30.16 in 10.0 mi WNW 11.5 mph - N/A   Clear
3:35 PM 69.1 °F - 18.1 °F 14% 30.15 in 10.0 mi WNW 12.7 mph 16.1 mph N/A   Clear
3:55 PM 68.9 °F - 18.9 °F 15% 30.15 in 10.0 mi WNW 10.4 mph - N/A   Clear
4:15 PM 68.9 °F - 18.5 °F 15% 30.15 in 10.0 mi WNW 9.2 mph - N/A   Clear
4:35 PM 68.4 °F - 18.1 °F 15% 30.15 in 10.0 mi West 10.4 mph 16.1 mph N/A   Clear
4:55 PM 67.6 °F - 18.3 °F 15% 30.14 in 10.0 mi West 10.4 mph - N/A   Clear
5:15 PM 66.6 °F - 18.1 °F 16% 30.14 in 10.0 mi West 10.4 mph - N/A   Clear
5:35 PM 64.9 °F - 16.5 °F 15% 30.15 in 10.0 mi West 13.8 mph - N/A   Clear
5:55 PM 62.6 °F - 15.6 °F 16% 30.16 in 10.0 mi West 11.5 mph 17.3 mph N/A   Clear
6:15 PM 59.5 °F - 15.8 °F 18% 30.16 in 10.0 mi West 9.2 mph - N/A   Clear
6:35 PM 57.2 °F - 15.4 °F 19% 30.17 in 10.0 mi West 9.2 mph - N/A   Clear
6:55 PM 55.2 °F - 15.6 °F 21% 30.17 in 10.0 mi West 10.4 mph - N/A   Clear
7:15 PM 52.9 °F - 14.9 °F 22% 30.17 in 10.0 mi WSW 10.4 mph - N/A   Clear
7:55 PM 51.1 °F - 14.9 °F 24% 30.19 in 10.0 mi West 11.5 mph - N/A   Clear
8:15 PM 51.1 °F - 14.9 °F 24% 30.19 in 10.0 mi West 10.4 mph - N/A   Clear
8:35 PM 50.9 °F - 15.1 °F 24% 30.19 in 10.0 mi West 10.4 mph - N/A   Clear
8:55 PM 50.0 °F - 15.3 °F 25% 30.20 in 10.0 mi WNW 11.5 mph - N/A   Clear
9:15 PM 51.1 °F - 15.8 °F 25% 30.21 in 10.0 mi WNW 9.2 mph - N/A   Clear
9:55 PM 46.0 °F 42.5 °F 15.1 °F 29% 30.22 in 10.0 mi West 6.9 mph - N/A   Clear
10:15 PM 41.5 °F 39.6 °F 13.5 °F 32% 30.22 in 10.0 mi South 3.5 mph - N/A   Clear
10:35 PM 42.8 °F 39.3 °F 13.8 °F 31% 30.23 in 10.0 mi SSW 5.8 mph - N/A   Clear
10:55 PM 42.8 °F 38.6 °F 14.2 °F 31% 30.23 in 10.0 mi WSW 6.9 mph - N/A   Clear
11:15 PM 49.1 °F - 15.8 °F 27% 30.23 in 10.0 mi West 12.7 mph - N/A   Clear
11:35 PM 49.8 °F - 15.8 °F 26% 30.22 in 10.0 mi West 10.4 mph - N/A   Clear
11:55 PM 46.4 °F - 14.9 °F 28% 30.23 in 10.0 mi Calm Calm - N/A   Clear